Hazlehurst, GA

10:52 PM EST on December 13, 2019 (GMT -0500)
Hazlehurst

Weather History for KAZE - August, 2019

Change the Weather History Date:

Thursday, August 29, 2019

  Actual Average Record
Temperature  
Mean Temperature 82 °F -  
Max Temperature 93 °F 94 °F 97 °F (2014)
Min Temperature 72 °F 69 °F 68 °F (2014)
Cooling Degree Days 18    
Growing Degree Days 32 (Base 50)    
Moisture  
Dew Point 62 °F    
Average Humidity 55    
Maximum Humidity 91    
Minimum Humidity 26    
Precipitation  
Precipitation 0.00 in - - ()
Sea Level Pressure  
Sea Level Pressure 29.99 in    
Wind  
Wind Speed 2 mph (NE)    
Max Wind Speed 10 mph    
Max Gust Speed -    
Visibility 10 miles    
Events      
Averages and records for this station are not official NWS values.
T = Trace of Precipitation, MM = Missing Value Source: NWS Daily Summary

Daily Weather History Graph

Daily Weather History Graph

Search for Another Location

Airport or City:

Astronomy

Aug. 29, 2019 Rise Set
Actual Time 7:04 AM EDT 7:58 PM EDT
Civil Twilight 6:39 AM EDT 8:23 PM EDT
Nautical Twilight 6:09 AM EDT 8:53 PM EDT
Astronomical Twilight 5:39 AM EDT 9:23 PM EDT
Moon 5:55 AM EDT (8/29) 7:49 PM EDT (8/29)
Length of Visible Light 13h 44m
Length of Day
12h 54m
Waning Crescent, 1% of the Moon is Illuminated
Aug 29
Waning Crescent
Aug 30
New
Sep 5
First Quarter
Sep 14
Full
Sep 21
Last Quarter

Hourly Weather History & Observations

Time (EDT) Temp. Heat Index Dew Point Humidity Pressure Visibility Wind Dir Wind Speed Gust Speed Precip Events Conditions
12:10 AM 77.0 °F - 70.7 °F 81% 29.95 in 10.0 mi Calm Calm - N/A   Clear
12:30 AM 76.3 °F - 71.4 °F 85% 29.95 in 10.0 mi Calm Calm - N/A   Clear
12:50 AM 75.6 °F - 70.9 °F 85% 29.95 in 10.0 mi Calm Calm - N/A   Clear
1:10 AM 75.2 °F - 70.7 °F 86% 29.95 in 10.0 mi Calm Calm - N/A   Clear
3:10 AM 74.3 °F - 69.8 °F 86% 29.93 in 10.0 mi Calm Calm - N/A   Clear
3:30 AM 73.8 °F - 70.0 °F 88% 29.94 in 10.0 mi Calm Calm - N/A   Clear
3:50 AM 73.9 °F - 69.8 °F 87% 29.93 in 10.0 mi Calm Calm - N/A   Clear
4:10 AM 72.9 °F - 69.8 °F 90% 29.93 in 10.0 mi Calm Calm - N/A   Clear
4:30 AM 72.7 °F - 69.8 °F 91% 29.94 in 10.0 mi Calm Calm - N/A   Clear
4:50 AM 72.5 °F - 69.3 °F 90% 29.94 in 7.0 mi Calm Calm - N/A   Clear
5:10 AM 72.5 °F - 69.6 °F 91% 29.94 in 7.0 mi Calm Calm - N/A   Clear
5:30 AM 73.4 °F - 68.7 °F 85% 29.95 in 10.0 mi Calm Calm - N/A   Clear
5:50 AM 72.7 °F - 68.0 °F 85% 29.95 in 10.0 mi Calm Calm - N/A   Clear
6:10 AM 73.4 °F - 67.8 °F 83% 29.96 in 10.0 mi Calm Calm - N/A   Clear
6:30 AM 73.4 °F - 68.0 °F 83% 29.97 in 10.0 mi Calm Calm - N/A   Clear
6:50 AM 72.9 °F - 68.2 °F 85% 29.97 in 10.0 mi Calm Calm - N/A   Clear
7:10 AM 72.5 °F - 68.2 °F 86% 29.98 in 10.0 mi Calm Calm - N/A   Clear
7:30 AM 72.5 °F - 68.0 °F 86% 29.99 in 10.0 mi Calm Calm - N/A   Clear
7:50 AM 73.2 °F - 67.6 °F 83% 30.00 in 10.0 mi Calm Calm - N/A   Clear
8:10 AM 74.3 °F - 67.8 °F 80% 30.00 in 10.0 mi Calm Calm - N/A   Clear
8:30 AM 75.6 °F - 67.3 °F 75% 30.01 in 10.0 mi North 3.5 mph - N/A   Clear
8:50 AM 77.2 °F - 67.1 °F 71% 30.02 in 10.0 mi NNE 4.6 mph - N/A   Clear
9:10 AM 78.8 °F - 66.4 °F 66% 30.02 in 10.0 mi NNE 5.8 mph - N/A   Clear
9:35 AM 80.6 °F 82.4 °F 65.3 °F 59% 30.02 in 10.0 mi NNE 4.6 mph - N/A   Clear
9:50 AM 81.7 °F 83.0 °F 63.5 °F 54% 30.03 in 10.0 mi NNE 8.1 mph - N/A   Clear
10:10 AM 83.5 °F 84.1 °F 61.9 °F 48% 30.03 in 10.0 mi NE 9.2 mph - N/A   Clear
10:30 AM 84.6 °F 85.0 °F 61.7 °F 46% 30.04 in 10.0 mi ENE 6.9 mph - N/A   Clear
10:50 AM 85.3 °F 85.4 °F 60.8 °F 44% 30.04 in 10.0 mi NE 10.4 mph - N/A   Clear
11:10 AM 85.3 °F 85.2 °F 60.3 °F 43% 30.04 in 10.0 mi East 8.1 mph - N/A   Clear
11:30 AM 86.0 °F 85.7 °F 59.7 °F 41% 30.04 in 10.0 mi NE 8.1 mph - N/A   Clear
11:50 AM 86.7 °F 86.5 °F 60.1 °F 41% 30.04 in 10.0 mi ENE 4.6 mph - N/A   Clear
12:30 PM 87.8 °F 86.9 °F 58.8 °F 37% 30.04 in 10.0 mi ENE 5.8 mph - N/A   Clear
12:50 PM 89.4 °F 88.4 °F 58.3 °F 35% 30.03 in 10.0 mi East 5.8 mph - N/A   Clear
1:10 PM 89.6 °F 88.6 °F 58.6 °F 35% 30.03 in 10.0 mi NE 9.2 mph - N/A   Clear
1:30 PM 89.6 °F 88.4 °F 57.9 °F 34% 30.02 in 10.0 mi Calm Calm - N/A   Clear
1:50 PM 89.8 °F 88.9 °F 58.5 °F 35% 30.01 in 10.0 mi Calm Calm - N/A   Clear
2:10 PM 91.0 °F 89.7 °F 57.7 °F 32% 30.01 in 10.0 mi Calm Calm - N/A   Clear
2:50 PM 91.4 °F 89.9 °F 57.2 °F 31% 29.99 in 10.0 mi NNE 5.8 mph - N/A   Clear
3:10 PM 91.4 °F 89.9 °F 56.5 °F 31% 29.99 in 10.0 mi Calm Calm - N/A   Clear
3:30 PM 92.5 °F 90.7 °F 55.6 °F 29% 29.98 in 10.0 mi Calm Calm - N/A   Clear
3:50 PM 92.5 °F 91.0 °F 56.5 °F 30% 29.97 in 10.0 mi Calm Calm - N/A   Clear
4:10 PM 93.0 °F 91.4 °F 55.9 °F 29% 29.97 in 10.0 mi North 5.8 mph - N/A   Scattered Clouds
4:30 PM 92.1 °F 90.2 °F 55.6 °F 29% 29.97 in 10.0 mi ENE 6.9 mph - N/A   Clear
4:50 PM 92.7 °F 90.6 °F 54.7 °F 28% 29.97 in 10.0 mi North 3.5 mph - N/A   Clear
5:10 PM 92.7 °F 90.6 °F 54.7 °F 28% 29.96 in 10.0 mi East 6.9 mph - N/A   Clear
5:30 PM 92.8 °F 90.9 °F 55.0 °F 28% 29.96 in 10.0 mi Calm Calm - N/A   Clear
5:50 PM 92.5 °F 90.2 °F 54.1 °F 27% 29.96 in 10.0 mi NNE 6.9 mph - N/A   Clear
6:10 PM 91.6 °F 89.6 °F 55.4 °F 29% 29.97 in 10.0 mi ENE 6.9 mph - N/A   Clear
6:30 PM 91.8 °F - 52.5 °F 26% 29.97 in 10.0 mi NE 4.6 mph - N/A   Clear
6:50 PM 91.2 °F 88.7 °F 53.1 °F 27% 29.97 in 10.0 mi NE 4.6 mph - N/A   Clear
7:10 PM 90.1 °F - 52.7 °F 28% 29.98 in 10.0 mi NE 3.5 mph - N/A   Clear
8:10 PM 84.4 °F 83.8 °F 58.1 °F 41% 30.00 in 10.0 mi Calm Calm - N/A   Clear
8:30 PM 82.9 °F 83.0 °F 59.5 °F 45% 30.00 in 10.0 mi Calm Calm - N/A   Clear
8:50 PM 83.5 °F 83.1 °F 58.5 °F 42% 30.01 in 10.0 mi ENE 4.6 mph - N/A   Clear
9:10 PM 83.7 °F 82.8 °F 56.3 °F 39% 30.01 in 10.0 mi NE 5.8 mph - N/A   Clear
9:30 PM 82.9 °F 82.3 °F 56.5 °F 40% 30.02 in 10.0 mi NE 4.6 mph - N/A   Clear
9:50 PM 82.0 °F 81.8 °F 57.2 °F 43% 30.02 in 10.0 mi NE 4.6 mph - N/A   Clear
10:10 PM 80.6 °F 80.8 °F 57.7 °F 45% 30.03 in 10.0 mi NE 3.5 mph - N/A   Clear
10:30 PM 79.9 °F - 58.1 °F 47% 30.04 in 10.0 mi NE 3.5 mph - N/A   Clear
10:50 PM 79.7 °F - 57.7 °F 47% 30.04 in 10.0 mi ENE 3.5 mph - N/A   Clear
11:10 PM 78.4 °F - 58.5 °F 50% 30.05 in 10.0 mi ESE 8.1 mph - N/A   Clear
11:30 PM 77.5 °F - 59.0 °F 53% 30.05 in 10.0 mi ESE 4.6 mph - N/A   Clear
11:50 PM 77.5 °F - 58.6 °F 52% 30.05 in 10.0 mi East 5.8 mph - N/A   Clear